Regional Weather Roundup
Issued by NWS Northern Indiana

Home | Current Version | Previous Version | Graphics & Text | Print | Product List | Glossary On
Versions: 1 2 3 4 5 6 7 8 9 10 11 12 13 14 15 16 17 18 19 20 21 22 23 24 25 26 27 28 29 30 31 32 33 34 35 36 37 38 39 40 41 42 43 44 45 46 47 48 49 50
000
ASUS43 KIWX 281110
RWRIWX

KIWX WEATHER ROUNDUP
NATIONAL WEATHER SERVICE NORTHERN INDIANA
700 AM EDT TUE JUL 28 2015

NOTE: "FAIR" INDICATES FEW OR NO CLOUDS BELOW 12,000 FEET WITH NO
SIGNIFICANT WEATHER AND/OR OBSTRUCTIONS TO VISIBILITY.

* THESE STATIONS ARE NOT UNDER NWS QUALITY CONTROL. THEY ALSO MAY NOT
  REPORT WEATHER SUCH AS PRECIPITATION OR FOG.

INZ001>027-281200-
NORTHERN INDIANA

CITY           SKY/WX    TMP DP  RH WIND       PRES   REMARKS
GARY*          CLEAR     70  64  83 SE7       30.00R
VALPARAISO     CLEAR     65  62  90 NE6       30.01S
MICHIGAN CITY* CLEAR     63  63 100 CALM      30.01S
LAPORTE*       CLEAR     64  64 100 CALM      30.02R
KNOX*          PTCLDY    63  63 100 E3        30.00S
SOUTH BEND     CLEAR     67  62  84 CALM      30.03R
ELKHART*       CLEAR     64  61  88 CALM      30.03
GOSHEN         CLEAR     62  59  90 CALM      30.03R
MONTICELLO*    CLOUDY    71  66  84 CALM      29.99R
LOGANSPORT*    MOCLDY    68  63  83 E3        30.01S
ROCHESTER*     MOCLDY    70  64  83 CALM      30.02S
WARSAW*        CLEAR     64  61  88 CALM      30.03R
ANGOLA*        CLEAR     61  48  63 CALM      30.04S
FORT WAYNE     PTCLDY    66  62  87 E6        30.03R
HUNTINGTON*    CLOUDY    68  64  86 CALM      30.02R
PERU/GRISSOM   CLEAR     72  66  82 E5        30.00R
MARION*        CLOUDY    70  65  83 E5        30.01S

$$
INZ028>050-281200-
CENTRAL INDIANA

CITY           SKY/WX    TMP DP  RH WIND       PRES   REMARKS
LAFAYETTE      CLEAR     69  66  90 E5        29.98R
KOKOMO*        CLEAR     68  63  83 SE5       30.01R
MUNCIE*        FAIR      68  66  93 E5        30.02R
INDIANAPOLIS   MOCLDY    74  70  87 NE6       29.98R FOG

$$
MIZ043>046-050>051-056>058-064>065-071>073-077>080-281200-
SOUTHWEST LOWER MICHIGAN

CITY           SKY/WX    TMP DP  RH WIND       PRES   REMARKS
BATTLE CREEK   CLEAR     64  61  90 CALM      30.05S
BENTON HARBOR  CLEAR     61  59  93 E3        30.01S
COLDWATER*     CLEAR     59  58  98 CALM      30.04S FOG
HILLSDALE*     CLEAR     61  61 100 CALM      30.06R
HOLLAND        CLEAR     64  62  93 CALM      30.04S FOG
GRAND RAPIDS   PTCLDY    65  62  90 CALM      30.05R
KALAMAZOO      CLEAR     64  61  90 CALM      30.04S
STURGIS*       CLEAR     63  61  94 CALM      30.03S
THREE RIVERS*  FAIR      61  60  96 CALM      30.04R

$$
OHZ001>008-015>018-024>025-281200-
NORTHWEST OHIO

CITY           SKY/WX    TMP DP  RH WIND       PRES   REMARKS
DEFIANCE       CLEAR     63  60  90 N5        30.04R FOG
FINDLAY        CLEAR     65  62  90 CALM      30.03R
TOLEDO EXPRESS CLEAR     63  62  97 CALM      30.03R
TOLEDO METCALF CLEAR     67  63  87 CALM      30.04R
LIMA           CLEAR     66  63  90 E6        30.03R

$$
AND FOR LAKE MICHIGAN COASTAL AND OPEN LAKE BUOY OBSERVATIONS

STATION/POSITION TEMP    WIND        PRES    VSBY  WAVE
                 AIR SEA DIR/SP/G                  HT/PER
                 (F)     (DEG/KT/KT) (MB)    (MI)  (FT/S)
CALUMET HARBOR    74     100/  4/  5   N/A
MICHIGAN CITY     71     110/  8/ 10   N/A
BURNS HARBOR      76     130/  8/ 14 1015.9S
SAINT JOSEPH      67      CALM  /  2 1016.9R
4 MI NW BRIDGMAN  70 73  160/ 10/ 10   N/A           1
MICHIGAN CITY     72 74  160/  8/ 10   N/A           1

$$
&&



USA.gov is the U.S. government's official web portal to all federal, state and local government web resources and services.